Wind_Speed
6 6 5 5 5 5 5 6 6 6 6 5 5 5 4 4 3 3 3 3 4 4 5 5 5 5 5 5 5 5 5 5 5 5 6 6 6 6 5 5 5 5 6
7 6 6 6 6 6 6 6 6 6 6 6 6 5 5 4 4 4 4 4 5 5 5 6 6 6 6 6 7 7 6 6 6 6 6 7 7 7 6 6 6 6 6
7 7 7 7 6 7 7 7 7 7 7 6 6 6 6 5 5 6 6 6 6 6 6 7 7 7 7 8 8 8 8 8 7 7 7 8 8 8 7 6 6 7 7
8 8 8 8 8 8 8 8 8 8 7 7 7 6 6 7 7 7 7 7 7 7 7 7 8 9 9 9 8 8 9 9 9 8 8 8 8 8 8 8 7 7 7
9 9 10 10 9 9 8 8 8 8 8 8 7 7 8 8 8 8 8 8 8 9 9 8 9 9 10 10 10 10 10 11 10 9 10 9 9 9 9 8 8 8 8
10 11 10 10 10 9 9 9 9 9 9 8 8 9 9 9 9 9 9 9 10 10 10 10 9 10 11 11 11 11 11 12 11 11 10 10 10 9 9 10 10 9 9
11 11 11 10 10 10 9 9 10 9 9 9 9 9 9 9 10 11 11 11 11 11 11 11 11 11 12 12 12 12 12 12 13 12 12 12 11 11 11 11 11 10 10
11 11 11 10 11 10 10 10 10 10 9 9 9 10 10 10 11 11 12 12 12 12 12 13 12 12 12 12 13 14 14 14 14 15 14 14 13 13 13 12 12 12 11
10 10 10 11 11 11 10 10 10 10 10 10 10 10 10 11 11 12 13 14 13 13 13 13 13 14 13 14 14 15 15 15 16 15 16 16 15 15 14 13 13 13 13
10 11 12 11 11 11 10 11 10 10 10 10 11 11 12 11 12 12 13 14 14 14 14 14 15 15 15 15 16 17 16 16 17 17 17 17 17 16 16 15 14 15 15
11 11 12 11 11 11 11 12 11 11 11 11 11 12 12 13 13 14 14 15 15 15 15 15 16 17 17 17 17 18 18 19 19 19 18 18 19 18 18 17 16 16 16
11 12 12 12 11 12 11 11 12 12 12 11 12 12 13 13 14 14 15 16 16 16 16 17 18 18 18 18 19 19 19 19 19 19 19 19 19 20 19 19 18 17 17
12 12 12 12 11 11 11 11 11 12 13 13 12 13 14 14 15 15 17 18 18 18 18 18 19 19 19 20 20 20 21 21 21 21 20 20 20 20 21 20 20 19 19
12 13 12 12 11 11 11 12 12 13 13 14 13 13 14 15 16 17 17 18 19 19 20 19 19 20 20 21 22 22 22 22 22 22 22 22 22 22 22 22 22 21 21
12 12 11 12 12 12 12 13 13 13 14 14 14 15 15 15 17 17 18 18 19 19 19 19 19 21 21 22 23 23 23 24 24 24 24 24 24 23 23 23 23 23 23
12 12 12 13 13 13 13 13 13 14 15 15 15 16 17 17 18 18 18 19 19 20 20 20 20 21 21 22 23 24 25 25 26 25 25 25 25 25 26 26 24 25 24
13 13 13 13 13 14 14 14 14 14 15 15 16 17 17 18 18 18 19 19 19 20 20 21 21 21 21 22 23 24 24 25 26 27 27 27 27 27 27 27 26 25 25
13 13 13 13 14 14 14 14 14 14 15 15 16 16 17 18 19 19 19 18 18 19 20 21 21 21 22 23 24 24 25 25 27 27 28 29 29 29 28 28 28 27 27
13 13 13 13 13 14 15 15 15 15 15 15 16 17 17 17 18 18 19 19 19 19 20 20 21 22 22 24 24 24 24 26 27 28 28 29 29 29 29 28 28 27 27
12 13 12 12 14 15 15 16 16 16 16 16 16 17 17 17 18 18 19 19 20 20 21 22 22 23 23 24 24 24 24 25 26 27 28 28 29 29 29 29 28 28 28
12 12 12 12 14 15 15 16 16 16 17 17 18 18 18 18 19 18 19 19 20 20 21 21 21 22 22 23 23 23 24 24 25 26 27 28 29 30 30 30 29 29 29
13 12 12 13 14 15 15 16 16 17 17 18 18 18 18 19 19 18 18 19 20 20 20 21 21 21 22 23 23 23 23 24 25 26 27 28 29 30 31 31 31 30 30
14 14 14 16 16 16 16 16 17 17 17 17 18 18 19 19 19 18 18 18 19 19 19 19 20 20 20 21 22 22 23 23 24 25 27 27 28 29 30 32 32 31 32
15 15 15 16 17 18 18 18 18 18 18 18 18 18 19 19 18 18 18 18 18 18 17 17 18 18 18 20 20 22 22 22 23 24 25 26 27 28 30 32 33 32 32
16 16 16 16 17 17 17 18 18 18 18 18 18 18 18 18 18 18 18 18 18 17 16 16 17 18 19 20 21 21 21 22 23 23 24 25 26 27 28 30 32 33 33
16 17 17 17 16 17 18 18 18 18 18 18 17 17 18 18 18 17 17 17 17 16 16 16 16 17 18 19 20 20 20 22 22 23 23 24 25 27 28 29 31 32 33
Wind_Direction
335 333 331 324 321 317 319 315 312 307 305 300 293 286 275 271 267 257 242 216 204 199 203 209 208 213 213 209 211 214 215 215 210 217 220 218 215 214 217 218 220 220 216
328 326 324 319 312 306 303 306 311 304 302 296 288 282 275 267 261 255 246 226 216 212 211 213 215 220 223 220 220 221 224 225 222 226 228 224 224 221 222 227 227 219 223
321 319 318 316 309 305 300 300 298 297 297 290 283 278 274 264 257 254 246 234 226 223 225 225 223 222 222 222 223 223 227 232 230 228 233 229 227 226 225 228 228 228 227
320 317 314 314 310 308 304 297 291 290 290 285 278 271 267 262 256 249 245 240 233 230 230 233 233 227 224 225 227 228 229 231 232 230 233 231 229 229 227 226 229 225 222
321 319 316 314 309 307 304 299 290 288 287 282 274 268 264 259 255 251 247 243 240 236 235 236 235 233 232 231 232 233 233 234 236 234 233 234 233 231 227 226 226 226 229
320 319 317 312 307 303 300 297 290 288 284 277 272 268 264 258 255 252 249 245 245 243 238 237 237 237 234 235 235 235 236 234 235 236 235 236 234 234 231 229 230 233 236
319 318 317 312 307 302 298 295 290 286 282 276 272 269 266 260 256 254 250 251 249 248 246 244 244 243 239 236 236 235 237 239 238 236 234 235 235 237 233 233 235 238 240
315 313 312 310 307 301 294 291 288 285 283 281 276 273 269 265 263 257 255 253 252 250 249 247 246 247 246 242 239 239 240 239 239 239 237 236 238 237 235 238 238 240 243
313 311 310 309 307 304 295 290 288 289 290 285 276 273 273 266 262 258 256 256 255 254 252 250 249 248 247 246 244 243 243 238 239 241 241 240 240 241 240 239 240 241 242
316 313 313 310 308 304 296 290 290 294 292 286 277 272 270 266 265 262 260 259 257 257 255 251 250 250 247 247 247 248 246 244 242 240 241 243 242 244 245 243 242 244 245
316 313 313 311 309 300 296 290 295 294 291 288 280 275 270 268 268 266 263 261 259 258 257 254 251 250 249 248 249 248 248 248 244 241 242 242 243 245 246 245 245 247 247
315 314 312 310 308 303 300 298 295 291 291 290 284 279 271 269 268 264 262 261 258 257 257 256 255 253 253 252 252 250 249 248 247 245 247 247 247 246 245 245 248 248 247
311 311 309 309 305 305 305 305 297 295 293 291 286 280 275 272 270 265 263 262 259 256 256 255 255 255 255 255 253 253 251 249 248 247 247 248 249 250 246 246 249 250 247
308 306 304 303 307 310 309 306 299 298 293 288 287 285 282 277 274 270 270 265 262 260 257 256 256 255 255 255 255 254 253 252 252 250 247 247 247 248 247 247 249 251 251
311 308 304 307 307 309 310 305 303 299 294 288 288 288 287 283 279 275 273 268 264 261 258 257 260 257 257 257 256 255 255 254 251 251 249 248 246 247 250 250 250 250 250
307 306 305 304 307 308 309 306 301 298 294 291 290 291 290 286 283 278 274 270 265 263 262 260 260 259 260 260 259 257 256 254 252 251 251 250 248 247 249 251 250 249 248
303 305 306 308 308 310 311 308 306 303 300 298 296 293 289 287 284 278 274 271 269 266 264 261 260 260 261 262 262 261 259 255 253 253 252 252 251 250 250 250 248 249 247
305 304 307 307 307 310 312 312 310 306 304 302 300 297 292 290 287 280 277 274 273 270 266 262 260 261 264 265 264 263 262 257 256 255 254 253 251 250 249 249 249 248 248
303 301 305 308 309 310 309 310 307 306 307 305 302 299 300 297 292 285 279 278 274 271 267 265 265 264 265 265 264 264 263 259 256 255 255 254 252 251 250 247 248 247 247
301 299 304 307 311 312 310 308 308 305 306 306 304 302 301 298 298 291 284 280 277 273 269 269 268 267 266 265 265 265 264 261 257 255 254 252 251 250 250 249 249 248 247
303 305 309 313 314 314 310 308 308 306 305 305 304 302 300 297 296 291 287 283 281 277 272 271 270 268 267 266 266 266 265 262 259 256 254 252 251 250 249 249 250 250 249
301 303 307 314 316 316 314 309 309 306 304 305 304 302 299 298 297 294 292 288 285 280 276 275 272 270 270 269 269 269 269 266 262 259 256 254 253 253 252 252 251 250 248
304 304 307 310 313 314 315 313 312 307 306 307 306 304 302 302 300 299 296 292 287 280 278 275 273 273 274 272 270 270 270 268 265 261 258 256 254 253 253 254 253 251 247
304 304 305 308 310 311 313 312 312 311 309 309 309 306 304 303 302 300 298 294 288 283 281 279 276 274 275 274 272 271 270 270 268 264 259 258 255 254 253 254 253 252 249
302 302 303 308 311 312 311 312 312 311 311 310 309 306 304 304 303 301 298 294 292 287 282 280 279 276 274 273 273 272 271 270 269 267 261 259 258 257 256 255 254 253 252
299 300 302 308 311 312 312 314 314 312 311 311 309 307 304 304 304 302 298 295 292 289 285 282 279 277 275 275 275 275 273 271 270 269 265 262 260 258 257 256 256 255 255
Height
5882 5881 5880 5879 5878 5877 5877 5876 5876 5875 5875 5874 5874 5873 5873 5873 5873 5873 5873 5873 5874 5874 5874 5875 5875 5876 5877 5877 5878 5879 5879 5880 5880 5881 5881 5882 5882 5883 5883 5884 5884 5885 5885
5880 5879 5878 5877 5877 5876 5875 5875 5874 5874 5873 5873 5872 5872 5872 5871 5871 5871 5872 5872 5872 5873 5873 5873 5874 5874 5875 5876 5877 5877 5878 5878 5879 5880 5880 5881 5881 5882 5882 5883 5883 5884 5885
5879 5878 5877 5876 5875 5874 5873 5873 5872 5872 5871 5871 5870 5870 5870 5870 5870 5870 5870 5870 5871 5871 5871 5872 5872 5873 5873 5874 5875 5876 5877 5877 5878 5878 5879 5879 5880 5880 5881 5882 5882 5883 5884
5877 5876 5875 5874 5873 5872 5871 5871 5870 5870 5869 5869 5868 5868 5868 5868 5868 5868 5868 5869 5869 5869 5869 5870 5870 5871 5872 5873 5874 5874 5875 5876 5876 5877 5877 5878 5879 5879 5880 5881 5881 5882 5883
5875 5874 5873 5872 5871 5870 5869 5869 5868 5868 5867 5866 5866 5866 5866 5866 5866 5866 5866 5867 5867 5867 5868 5868 5868 5869 5870 5871 5872 5872 5873 5874 5874 5875 5876 5876 5877 5878 5879 5880 5880 5881 5882
5873 5872 5871 5870 5869 5868 5867 5866 5866 5865 5864 5864 5864 5864 5863 5863 5863 5864 5864 5865 5865 5865 5865 5865 5866 5867 5867 5868 5869 5870 5871 5872 5872 5873 5874 5874 5875 5876 5877 5878 5879 5880 5881
5871 5870 5869 5867 5866 5865 5864 5864 5863 5862 5862 5861 5861 5861 5861 5861 5861 5861 5861 5862 5862 5863 5863 5863 5864 5864 5865 5866 5867 5868 5869 5869 5870 5870 5871 5872 5873 5874 5875 5876 5877 5878 5879
5869 5868 5866 5865 5864 5863 5862 5861 5860 5860 5859 5859 5858 5858 5858 5858 5859 5859 5859 5859 5860 5860 5861 5861 5862 5862 5863 5864 5865 5866 5866 5867 5868 5868 5868 5869 5871 5872 5873 5874 5875 5876 5877
5867 5865 5864 5863 5861 5860 5859 5859 5858 5857 5857 5856 5856 5855 5855 5855 5855 5856 5856 5856 5857 5857 5858 5858 5859 5859 5860 5861 5862 5863 5863 5864 5865 5866 5866 5867 5868 5869 5871 5872 5873 5874 5875
5865 5863 5862 5860 5859 5858 5857 5856 5855 5854 5854 5853 5852 5852 5852 5852 5852 5852 5853 5853 5853 5854 5855 5855 5856 5856 5857 5858 5859 5859 5860 5861 5862 5863 5863 5864 5865 5867 5868 5869 5870 5871 5872
5863 5861 5859 5858 5857 5855 5854 5853 5852 5851 5851 5850 5849 5849 5849 5849 5849 5849 5849 5850 5850 5851 5851 5852 5853 5853 5854 5854 5855 5856 5856 5857 5858 5859 5860 5862 5863 5863 5865 5865 5867 5868 5869
5861 5859 5857 5856 5854 5853 5852 5851 5850 5849 5848 5847 5846 5846 5846 5846 5846 5846 5846 5846 5846 5847 5847 5848 5849 5849 5850 5851 5851 5852 5853 5853 5854 5855 5856 5858 5859 5860 5861 5862 5863 5864 5865
5859 5857 5855 5854 5852 5851 5850 5849 5847 5846 5845 5844 5844 5843 5843 5842 5842 5842 5842 5842 5842 5842 5843 5843 5844 5845 5845 5846 5847 5848 5848 5849 5850 5851 5852 5853 5854 5855 5856 5858 5859 5860 5861
5857 5855 5853 5852 5850 5849 5847 5846 5845 5843 5842 5841 5841 5840 5839 5839 5839 5838 5837 5837 5837 5837 5838 5839 5839 5840 5840 5841 5842 5843 5843 5844 5845 5846 5847 5848 5849 5850 5852 5853 5854 5856 5857
5855 5853 5851 5850 5848 5847 5845 5843 5842 5840 5839 5838 5838 5837 5836 5836 5835 5834 5834 5833 5833 5833 5833 5834 5835 5835 5835 5836 5837 5837 5838 5839 5840 5841 5842 5843 5844 5845 5846 5848 5849 5850 5851
5853 5851 5849 5847 5846 5844 5843 5841 5839 5838 5837 5836 5835 5833 5832 5831 5831 5830 5830 5829 5829 5829 5829 5829 5829 5830 5830 5830 5831 5831 5832 5833 5834 5835 5836 5837 5838 5839 5841 5842 5843 5844 5846
5851 5849 5847 5845 5844 5842 5840 5838 5836 5835 5834 5832 5831 5829 5828 5827 5826 5825 5825 5825 5824 5824 5824 5824 5824 5825 5825 5825 5825 5825 5826 5826 5827 5828 5829 5831 5832 5833 5835 5836 5837 5838 5839
5848 5847 5845 5843 5841 5839 5837 5835 5834 5832 5830 5829 5827 5825 5824 5823 5821 5820 5820 5820 5819 5819 5819 5819 5819 5819 5819 5819 5819 5819 5820 5820 5821 5822 5823 5824 5825 5826 5828 5829 5831 5832 5833
5846 5844 5843 5841 5839 5837 5835 5832 5831 5829 5827 5825 5823 5822 5820 5818 5817 5816 5815 5815 5814 5814 5814 5814 5814 5814 5814 5813 5813 5813 5813 5813 5813 5814 5815 5817 5819 5820 5821 5823 5824 5826 5827
5843 5842 5840 5838 5836 5834 5832 5830 5828 5826 5824 5822 5820 5818 5816 5814 5813 5811 5811 5810 5809 5808 5808 5808 5808 5808 5807 5807 5807 5806 5806 5806 5806 5807 5808 5810 5811 5812 5814 5816 5818 5819 5821
5841 5839 5837 5835 5833 5831 5829 5827 5825 5823 5821 5819 5816 5814 5812 5810 5808 5807 5806 5805 5804 5803 5802 5802 5801 5801 5801 5801 5801 5800 5800 5799 5800 5801 5801 5803 5804 5805 5807 5808 5810 5812 5814
5838 5836 5834 5832 5830 5828 5826 5824 5821 5819 5817 5815 5813 5810 5808 5806 5804 5802 5801 5799 5798 5797 5797 5796 5796 5795 5795 5794 5794 5794 5794 5794 5794 5794 5795 5795 5797 5798 5799 5801 5803 5805 5807
5835 5833 5831 5829 5827 5825 5823 5820 5818 5815 5813 5810 5808 5806 5804 5801 5799 5797 5795 5794 5792 5792 5791 5790 5790 5789 5789 5788 5787 5787 5787 5787 5787 5788 5788 5789 5789 5791 5792 5793 5795 5797 5799
5832 5831 5829 5826 5824 5821 5819 5816 5814 5811 5809 5807 5804 5802 5799 5797 5794 5792 5790 5789 5787 5787 5786 5785 5784 5784 5783 5782 5782 5781 5781 5780 5781 5781 5782 5782 5782 5783 5785 5786 5788 5790 5792
5829 5827 5825 5823 5820 5817 5815 5813 5810 5807 5805 5803 5800 5797 5795 5792 5790 5788 5786 5784 5783 5782 5781 5780 5779 5778 5778 5777 5776 5776 5775 5775 5774 5775 5775 5775 5776 5777 5777 5778 5780 5781 5783
5826 5824 5822 5820 5817 5814 5811 5809 5806 5803 5801 5798 5796 5793 5791 5789 5786 5783 5781 5780 5778 5777 5776 5775 5774 5773 5772 5771 5771 5770 5769 5769 5768 5768 5768 5769 5769 5770 5770 5771 5772 5773 5775